Mazatlan Airport, Mexico

5:15 PM MST on March 26, 2017 (GMT -0700)
Gen Rafael Buelna International

Weather History for MMMZ - January, 2014

Change the Weather History Date:

Saturday, January 11, 2014

  Actual Average Record
Temperature  
Mean Temperature 66 °F -  
Max Temperature 81 °F 78 °F 89 °F (2005)
Min Temperature 51 °F 51 °F 41 °F (1997)
Cooling Degree Days 1    
Growing Degree Days 16 (Base 50)    
Moisture  
Dew Point 54 °F    
Average Humidity 67    
Maximum Humidity 84    
Minimum Humidity 40    
Precipitation  
Precipitation 0.00 in - - ()
Sea Level Pressure  
Sea Level Pressure 29.96 in    
Wind  
Wind Speed 6 mph ()    
Max Wind Speed 13 mph    
Max Gust Speed -    
Visibility 12.3 miles    
Events      
Averages and records for this station are not official NWS values.
T = Trace of Precipitation, MM = Missing Value Source: Averaged Metar Reports

Daily Weather History Graph

Daily Weather History Graph

Search for Another Location

Airport or City:

Trip Planner

Search our weather history database for the weather conditions in past years. The results will help you decide how hot, cold, wet, or windy it might be!

Date:

Astronomy

Jan. 11, 2014 Rise Set
Actual Time 6:48 AM MST 5:37 PM MST
Civil Twilight 6:24 AM MST 6:02 PM MST
Nautical Twilight 5:56 AM MST 6:30 PM MST
Astronomical Twilight 5:28 AM MST 6:57 PM MST
Moon 2:19 PM MST (1/11) 3:01 AM MST (1/11)
Length of Visible Light 11h 38m
Length of Day
10h 49m
Waxing Gibbous, 83% of the Moon is Illuminated
Jan 11
Waxing Gibbous
Jan 15
Full
Jan 23
Last Quarter
Jan 30
New
Feb 6
First Quarter

Hourly Weather History & Observations

Time (MST) Temp. Heat Index Dew Point Humidity Pressure Visibility Wind Dir Wind Speed Gust Speed Precip Events Conditions
12:43 AM 51.8 °F - 46.4 °F 82% 29.97 in 10.0 mi North 8.1 mph - N/A   Clear
1:48 AM 51.8 °F - 46.4 °F 82% 29.96 in 10.0 mi North 8.1 mph - N/A   Clear
2:00 AM 62 °F - 57 °F 78% 29.98 in - NW 2.2 mph - -  
2:46 AM 53.6 °F - 46.4 °F 77% 29.95 in 10.0 mi North 9.2 mph - N/A   Clear
3:44 AM 51.8 °F - 46.4 °F 82% 29.94 in 10.0 mi North 8.1 mph - N/A   Clear
4:43 AM 51.8 °F - 46.4 °F 82% 29.96 in 10.0 mi NNW 8.1 mph - N/A   Clear
5:00 AM 59 °F - 55 °F 84% 29.96 in - NW 2.2 mph - -  
5:42 AM 51.8 °F - 44.6 °F 76% 29.96 in 10.0 mi NNE 8.1 mph - N/A   Clear
6:44 AM 51.8 °F - 44.6 °F 76% 29.98 in 12.0 mi North 8.1 mph - N/A   Clear
7:49 AM 55.4 °F - 48.2 °F 77% 30.01 in 14.0 mi NNE 9.2 mph - N/A   Scattered Clouds
8:49 AM 60.8 °F - 51.8 °F 72% 30.04 in 15.0 mi NNE 6.9 mph - N/A   Partly Cloudy
9:48 AM 68.0 °F - 53.6 °F 60% 30.04 in 15.0 mi East 8.1 mph - N/A   Scattered Clouds
10:42 AM 73.4 °F - 55.4 °F 53% 30.02 in 15.0 mi ESE 8.1 mph - N/A   Partly Cloudy
11:00 AM 79 °F - 59 °F 40% 30.03 in - ESE 6.7 mph - -  
11:40 AM 77.0 °F - 57.2 °F 50% 29.98 in 15.0 mi SSE 8.1 mph - N/A   Scattered Clouds
12:45 PM 80.6 °F 80.8 °F 57.2 °F 45% 29.94 in 15.0 mi South 9.2 mph - N/A   Scattered Clouds
2:00 PM 81 °F - 62 °F 42% 29.93 in - SSW 4.5 mph - -  
2:01 PM 80.6 °F 81.1 °F 59.0 °F 48% 29.90 in 15.0 mi SSW 9.2 mph - N/A   Scattered Clouds
2:47 PM 78.8 °F - 57.2 °F 47% 29.90 in 15.0 mi SSW 12.7 mph - N/A   Partly Cloudy
3:41 PM 77.0 °F - 59.0 °F 54% 29.91 in 15.0 mi SW 10.4 mph - N/A   Partly Cloudy
4:42 PM 73.4 °F - 60.8 °F 65% 29.91 in 15.0 mi West 10.4 mph - N/A   Partly Cloudy
5:00 PM 76 °F - 64 °F 59% 29.94 in - West 4.5 mph - -  
5:42 PM 71.6 °F - 59.0 °F 64% 29.92 in 12.0 mi West 8.1 mph - N/A   Partly Cloudy
6:43 PM 64.4 °F - 55.4 °F 73% 29.93 in 12.0 mi Calm Calm - N/A   Partly Cloudy
7:41 PM 64.4 °F - 55.4 °F 73% 29.95 in 10.0 mi NNE 6.9 mph - N/A   Scattered Clouds
8:42 PM 64.4 °F - 55.4 °F 73% 29.96 in 10.0 mi NNW 9.2 mph - N/A   Partly Cloudy
9:44 PM 62.6 °F - 55.4 °F 77% 29.98 in 10.0 mi Calm Calm - N/A   Mostly Cloudy
10:40 PM 62.6 °F - 55.4 °F 77% 29.95 in 10.0 mi ENE 5.8 mph - N/A   Mostly Cloudy
11:42 PM 60.8 °F - 55.4 °F 82% 29.98 in 10.0 mi North 8.1 mph - N/A   Mostly Cloudy